Content
SEND FEEDBACK

Daily
Averages
Monthly
Summary
United States of America

ROSE CITY, TEXAS


Home > North America > United States > Texas
Elevation: 20 feet     Latitude: 30 05N     Longitude: 094 06W

WEATHER
 
SELECT A DAY
Number of Records: 68,727;   Date Range: 3/9/11 - 7/25/14
 
SHARE

PRINT THIS DATA

[ ← Previous Day ]
WEATHER ALMANAC - JANUARY 22, 2013
[ Next Day → ]
[ °C ]   °F
Weather ElementAverageHighLow
Temperature53.5 °F69.8 °F (3:15 pm)41 °F (6:15 am)
Dewpoint40.5 °F46.4 °F (7:55 pm)35.6 °F (9:15 am)
Humidity66.2 %93 % (2:55 am)31 % (3:35 pm)
Barometer30.28 in30.35 in (9:55 am)30.22 in (1:15 am)
Wind Speed3.4 mph8.1 mph (4:55 pm)
Weather ElementAverage
Visibility9.3 mi
Wind DirectionENE (82.4 °)

Weather ElementTotal
Precipitation---
Heating Degree Days9.6 (Base 65)
Growing Degree Days5.4 (Base 50)
Averaged from 63 records on January 22, 2013
WEATHER CONDITIONS BREAKOUT
WIND DIRECTION BREAKOUT
WEATHER BY HOUR - JANUARY 22, 2013
[ °C ]   °F
Local TimeTemperatureDewpointHumidityBarometerVisibilityWind DirectionWind SpeedGust SpeedPrecipitationEventsConditions
1:15 AM44.6 °F41.0 °F87 %30.22 in10.0 miCalmClear
1:55 AM44.6 °F41.0 °F87 %30.23 in10.0 miNorth (10°)3.5 mphClear
2:15 AM44.6 °F41.0 °F87 %30.24 in10.0 miCalmClear
2:35 AM44.6 °F41.0 °F87 %30.24 in10.0 miCalmClear
2:55 AM42.8 °F41.0 °F93 %30.24 in10.0 miNNE (20°)3.5 mphClear
3:15 AM44.6 °F41.0 °F87 %30.24 in10.0 miNE (50°)3.5 mphClear
3:35 AM46.4 °F42.8 °F87 %30.24 in10.0 miENE (60°)4.6 mphClear
3:55 AM46.4 °F42.8 °F87 %30.25 in10.0 miENE (60°)3.5 mphClear
4:15 AM44.6 °F41.0 °F87 %30.25 in10.0 miENE (60°)3.5 mphClear
4:35 AM44.6 °F41.0 °F87 %30.26 in10.0 miNNE (30°)3.5 mphClear
4:55 AM42.8 °F39.2 °F87 %30.26 in10.0 miNNE (30°)3.5 mphClear
5:15 AM42.8 °F39.2 °F87 %30.26 in10.0 miNNE (30°)3.5 mphClear
5:35 AM42.8 °F39.2 °F87 %30.27 in10.0 miCalmClear
5:55 AM42.8 °F37.4 °F81 %30.27 in10.0 miNE (40°)3.5 mphClear
6:15 AM41.0 °F37.4 °F87 %30.28 in10.0 miCalmClear
6:35 AM41.0 °F37.4 °F87 %30.28 in10.0 miNE (40°)3.5 mphClear
6:55 AM41.0 °F37.4 °F87 %30.29 in10.0 miNNE (20°)3.5 mphClear
7:15 AM41.0 °F37.4 °F87 %30.30 in10.0 miNE (40°)4.6 mphClear
7:35 AM42.8 °F37.4 °F81 %30.31 in10.0 miNE (40°)5.8 mphClear
7:55 AM42.8 °F37.4 °F81 %30.32 in10.0 miNE (50°)5.8 mphClear
8:15 AM44.6 °F37.4 °F76 %30.31 in10.0 miENE (60°)5.8 mphClear
8:35 AM46.4 °F37.4 °F71 %30.32 in10.0 miNE (50°)4.6 mphClear
8:55 AM48.2 °F37.4 °F66 %30.33 in10.0 miENE (60°)4.6 mphClear
9:15 AM50.0 °F35.6 °F58 %30.34 in10.0 miENE (70°)3.5 mphClear
9:55 AM51.8 °F37.4 °F58 %30.35 in10.0 miEast (80°)5.8 mphClear
10:15 AM53.6 °F37.4 °F54 %30.35 in10.0 miCalmClear
10:35 AM55.4 °F37.4 °F51 %30.35 in10.0 miENE (60°)4.6 mphClear
11:35 AM60.8 °F37.4 °F42 %30.34 in10.0 miCalmClear
11:55 AM62.6 °F37.4 °F39 %30.33 in10.0 miCalmClear
12:15 PM64.4 °F39.2 °F40 %30.31 in10.0 miCalmClear
12:35 PM64.4 °F37.4 °F37 %30.30 in10.0 miCalmClear
12:55 PM64.4 °F37.4 °F37 %30.29 in10.0 miCalmClear
1:15 PM66.2 °F37.4 °F35 %30.28 in10.0 miCalmClear
1:35 PM68.0 °F37.4 °F33 %30.27 in10.0 miSE (130°)4.6 mphClear
1:55 PM68.0 °F37.4 °F33 %30.26 in10.0 miNorthClear
2:15 PM68.0 °F37.4 °F33 %30.26 in10.0 miSSE (160°)4.6 mphClear
2:35 PM68.0 °F37.4 °F33 %30.26 in10.0 miSSW (200°)3.5 mphClear
2:55 PM68.0 °F39.2 °F35 %30.26 in10.0 miCalmScattered Clouds
3:15 PM69.8 °F39.2 °F33 %30.26 in10.0 miSouth (190°)4.6 mphScattered Clouds
3:35 PM69.8 °F37.4 °F31 %30.26 in10.0 miSouth (190°)6.9 mphClear
3:55 PM68.0 °F37.4 °F33 %30.26 in10.0 miSouth (180°)4.6 mphClear
4:15 PM68.0 °F37.4 °F33 %30.26 in10.0 miSouth (170°)6.9 mphClear
4:35 PM68.0 °F39.2 °F35 %30.26 in10.0 miSouth (170°)3.5 mphClear
4:55 PM66.2 °F41.0 °F40 %30.26 in10.0 miSouth (170°)8.1 mphClear
5:15 PM64.4 °F39.2 °F40 %30.27 in10.0 miSSE (160°)6.9 mphClear
5:35 PM62.6 °F41.0 °F45 %30.26 in10.0 miSouth (170°)5.8 mphClear
5:55 PM60.8 °F42.8 °F52 %30.26 in10.0 miSSE (160°)4.6 mphClear
6:15 PM59.0 °F42.8 °F55 %30.26 in10.0 miSSE (160°)5.8 mphClear
6:35 PM57.2 °F44.6 °F63 %30.27 in10.0 miSSE (160°)5.8 mphClear
6:55 PM55.4 °F44.6 °F67 %30.27 in10.0 miSSE (150°)4.6 mphClear
7:15 PM53.6 °F44.6 °F72 %30.28 in10.0 miSouth (170°)3.5 mphClear
7:35 PM53.6 °F44.6 °F72 %30.28 in10.0 miSSE (160°)4.6 mphClear
7:55 PM51.8 °F46.4 °F82 %30.28 in10.0 miSSE (150°)3.5 mphClear
8:15 PM51.8 °F46.4 °F82 %30.28 in10.0 miSSE (150°)3.5 mphClear
8:35 PM51.8 °F46.4 °F82 %30.28 in10.0 miSE (140°)3.5 mphClear
8:55 PM50.0 °F46.4 °F87 %30.29 in10.0 miSSE (150°)4.6 mphClear
9:15 PM50.0 °F46.4 °F87 %30.30 in7.0 miSE (140°)3.5 mphClear
9:35 PM50.0 °F46.4 °F87 %30.30 in5.0 miSE (140°)3.5 mphClear
9:55 PM50.0 °F46.4 °F87 %30.31 in4.0 miESE (120°)3.5 mphClear
10:15 PM50.0 °F46.4 °F87 %30.31 in4.0 miSE (130°)3.5 mphClear
10:35 PM50.0 °F46.4 °F87 %30.31 in3.0 miSE (130°)3.5 mphClear
11:15 PM50.0 °F46.4 °F87 %30.31 in1.8 miSE (130°)3.5 mphMist
11:55 PM48.2 °F44.6 °F87 %30.31 in1.5 miCalmMist
Hourly data recorded from KBMT, located miles away from Rose City, Texas







STORIES FROM OUR PARTNERS